SCP
0 0 0 0 0 0 0 0 0 0 0 0 0 0 0 0 0 0 0 0 0 0 0 0 0 0 0 0 0 0 0 0 0 0 0 0 0 0 0 0 0 0 0
0 0 0 0 0 0 0 0 0 0 0 0 0 0 0 0 0 0 0 0 0 0 0 0 0 0 0 0 0 0 0 0 0 0 0 0 0 0 0 0 0 0 0
0 0 0 -0 0 0 0 0 0 0 0 0 0 0 0 0 0 0 0 0 0 0 0 0 0 0 0 0 0 0 0 0 0 0 0 0 0 0 0 0 0 0 0
0 0 0 -0 0 0 0 0 0 0 0 0 0 0 0 0 0 0 0 0 0 0 0 0 0 0 0 0 0 0 0 0 0 0 0 0 0 0 0 0 0 0 0
0 0 0 0 0 0 0 0 0 0 0 0 0 0 0 0 0 0 0 0 0 0 0 0 0 0 0 0 0 0 0 0 0 0 0 0 0 0 0 0 0 0 0
0 0 0 0 0 0 0 0 0 0 0 0 0 0 0 0 0 0 0 0 0 0 0 0 0 0 0 0 0 0 0 0 0 0 0 0 0 0 0 0 0 0 0
0 0 0 0 0 0 0 0 0 0 0 0 0 0 0 0 0 0 0 0 0 0 0 0 0 0 0 0 0 0 0 0 0 0 0 0 0 0 0 0 0 0 0
0 0 0 0 0 0 0 0 0 0 0 0 0 0 0 0 0 0 0 0 0 0 0 0 0 0 0 0 0 0 0 0 0 0 0 0 0 0 0 0 0 0 0
0 0 0 0 0 0 0 0 0 0 0 0 0 0 0 0 0 0 0 0 0 0 0 0 0 0 0 0 0 0 0 0 0 0 0 0 0 0 0 0 0 0 0
0 0 0 0 0 0 0 0 0 0 0 0 0 0 0 0 0 0 0 0 0 0 0 0 0 0 0 0 0 0 0 0 0 0 0 0 0 0 0 0 0 0 0
0 0 0 0 0 0 0 0 0 0 0 0 0 0 0 0 0 0 0 0 0 0 0 0 0 0 0 0 0 0 0 0 0 0 0 0 0 0 0 0 0 0 0
0 0 0 0 0 0 0 0 0 0 0 0 0 0 0 0 0 0 0 0 0 0 0 0 0 0 0 0 0 0 0 0 0 0 0 0 0 0 0 0 0 0 0
0 0 0 0 0 0 0 0 0 0 0 0 0 0 0 0 0 0 0 0 0 0 0 0 0 0 0 0 0 0 0 0 0 0 0 0 0 0 0 0 0 0 0
0 0 0 0 0 0 0 0 0 0 0 0 0 0 0 0 0 0 0 0 0 0 0 0 0 0 0 0 0 0 0 0 0 0 0 0 0 0 0 0 0 0 0
0 0 0 0 0 0 0 0 0 0 0 0 0 0 0 0 0 0 0 0 0 0 0 0 0 0 0 0 0 0 0 0 0 0 0 0 0 0 0 0 0 0 0
0 0 0 0 0 0 0 0 0 0 0 0 0 0 0 0 0 0 0 0 0 0 0 0 0 0 0 0 0 0 0 0 0 0 0 0 0 0 0 0 0 0 0
0 -0 -0 0 0 0 0 0 0 0 0 0 0 0 0 0 0 0 0 0 0 0 0 0 0 0 0 0 0 0 0 0 0 0 0 0 0 0 0 0 0 0 0
-0 -0 0 -0 0 0 0 0 0 0 0 0 0 0 0 0 0 0 0 0 0 0 0 0 0 0 0 0 0 0 0 0 0 0 0 0 0 0 0 0 0 0 0
-0 -0 -0 0 -0 -0 -0 -0 0 0 0 0 0 0 0 0 0 0 0 0 0 0 0 0 0 0 0 0 0 0 0 0 0 0 0 0 0 0 0 0 0 0 0
-0 -0 -0 -0 -0 0 0 0 0 0 0 0 0 0 0 0 0 0 0 0 0 0 0 0 0 0 0 0 0 0 0 0 0 0 0 0 0 0 0 0 0 0 0
0 0 -0 -0 -0 0 0 0 0 0 0 -0 0 0 0 -0 0 0 0 0 0 0 0 0 0 0 0 0 0 0 0 0 0 0 0 0 0 0 0 0 0 0 0
0 0 0 -0 -0 -0 -0 -0 -0 -0 -0 -0 -0 0 0 0 0 0 0 0 0 0 0 0 0 0 0 0 0 0 0 0 0 0 0 0 0 0 0 0 0 0 0
0 0 0 -0 -0 -0 -0 -0 0 0 0 0 0 0 0 0 0 0 0 0 0 0 0 0 0 0 0 0 0 0 0 0 0 -0 0 0 0 -0 -0 -0 0 -0 -0
0 0 0 -0 -0 -0 -0 -0 0 0 0 0 0 0 0 0 0 0 0 0 0 0 0 0 0 0 0 0 0 0 0 0 -0 0 -0 -0 -0 -0 -0 -0 -0 -0 -0
0 0 0 0 -0 0 0 0 0 0 0 0 0 0 0 0 0 0 0 -0 0 0 -0 -0 -0 -0 -0 0 0 0 -0 -0 -0 -0 -0 -0 -0 -0 -0 -0 -0 -0 -0
0 0 0 0 0 0 0 0 0 0 0 0 0 0 0 0 0 0 0 0 -0 0 0 0 0 -0 -0 0 0 0 0 -0 -0 -0 -0 -0 -0 -0 -0 -0 -0 -0 -0
Wind_Speed_500mb
56 47 44 65 68 76 76 82 83 98 81 81 79 73 75 75 66 62 57 54 61 63 55 56 58 55 52 45 40 39 39 40 41 37 37 37 38 41 39 39 38 38 39
70 55 51 56 58 78 78 77 80 84 88 91 83 75 78 77 67 63 59 61 61 61 62 60 61 58 54 48 48 47 46 48 47 45 33 24 38 45 43 41 40 39 40
57 61 53 44 59 87 78 75 80 79 81 76 71 75 71 76 70 65 68 71 68 65 63 62 62 59 55 54 50 50 52 51 50 50 35 18 22 23 36 39 37 37 34
60 60 53 61 62 83 81 75 75 81 87 91 86 82 79 84 83 79 73 71 71 68 66 63 62 61 57 55 48 52 53 51 53 52 57 50 29 21 17 29 30 32 36
65 46 69 42 70 76 71 70 72 75 80 79 82 83 87 82 82 75 76 76 73 70 67 64 65 65 60 54 52 54 53 53 54 56 55 56 52 44 40 37 37 39 37
64 65 61 64 49 74 70 73 76 70 76 73 74 80 83 88 86 84 83 80 77 70 69 67 71 67 63 58 57 58 56 55 55 57 56 58 55 54 52 50 48 45 48
64 69 60 60 50 68 75 74 76 73 74 77 78 79 85 87 84 84 84 84 83 80 76 73 75 72 68 62 64 62 60 60 62 62 58 55 51 45 38 36 37 40 47
74 81 74 62 51 62 80 73 74 75 78 77 79 83 77 85 89 86 82 83 80 81 76 76 76 74 71 69 67 65 64 63 63 63 58 53 45 39 32 31 38 43 49
74 77 85 63 55 65 70 72 71 66 75 75 79 82 79 90 88 88 78 78 72 79 77 76 77 77 76 73 71 69 65 63 63 61 54 45 37 31 28 38 49 45 49
65 68 78 67 56 56 66 70 59 55 62 66 71 76 77 84 84 85 83 76 68 68 75 78 81 79 78 75 70 63 61 57 55 50 45 37 31 42 55 41 48 49 50
59 60 71 68 57 49 50 50 54 47 48 55 68 72 74 82 87 88 92 75 65 67 74 80 83 80 77 72 61 53 45 41 38 35 37 39 41 30 36 45 48 49 53
43 43 48 51 50 45 44 41 40 42 46 50 55 64 70 82 92 95 91 79 63 69 73 78 80 79 69 57 44 38 35 34 32 30 30 27 33 30 45 45 49 53 56
59 50 45 42 39 37 40 41 43 37 46 51 56 63 63 68 71 77 74 67 68 67 66 62 51 34 30 25 25 30 32 19 21 18 27 27 41 41 44 49 53 56 60
82 81 71 62 52 43 38 31 24 16 16 25 28 28 24 14 7 8 11 8 7 11 15 15 19 22 21 23 14 8 9 13 19 25 34 36 38 40 47 51 53 60 70
92 87 85 74 65 60 51 46 41 29 24 17 23 28 27 24 21 23 29 33 31 31 28 26 21 19 13 7 15 19 18 15 19 22 29 36 43 44 52 62 59 63 67
81 88 92 93 91 84 81 76 75 72 66 68 67 63 60 55 52 50 49 42 36 29 25 18 9 4 2 8 17 18 20 24 30 33 35 41 44 44 45 49 53 55 62
77 91 89 106 99 98 94 95 85 80 80 75 65 59 52 46 43 41 34 32 29 21 20 15 13 13 15 16 18 19 21 23 25 31 37 41 43 46 51 54 57 58 58
98 95 97 97 90 85 79 74 72 71 65 62 54 45 43 45 36 29 30 27 23 23 22 20 20 18 22 19 24 30 29 27 29 33 36 39 42 44 51 58 63 66 68
91 89 86 82 82 86 77 75 76 73 71 66 58 51 49 46 41 37 35 34 30 27 26 28 26 23 26 30 30 28 30 33 36 40 44 49 52 56 62 69 75 77 78
88 86 85 82 80 80 77 72 74 71 67 58 54 51 48 46 44 43 43 42 39 39 35 33 34 33 34 38 42 44 44 46 49 50 53 54 58 60 61 63 68 76 77
84 78 78 83 80 75 73 80 76 77 66 58 55 55 54 54 50 45 43 42 39 34 35 35 37 39 43 47 51 54 55 58 59 60 63 65 66 66 65 62 58 61 73
83 81 81 82 75 72 71 74 77 63 55 52 54 54 53 50 46 45 46 43 42 40 43 43 44 46 47 50 54 56 58 61 65 67 69 70 71 71 72 71 72 76 81
78 76 78 77 72 69 68 70 66 53 51 49 53 52 47 46 45 45 46 47 45 47 50 50 51 52 54 56 58 60 62 66 67 70 72 72 75 79 79 81 83 88 91
72 70 70 73 72 68 66 66 56 51 47 51 53 51 49 48 48 49 52 53 57 58 57 58 57 56 58 61 62 65 68 72 74 76 77 80 83 86 89 94 93 92 88
66 66 66 66 66 59 58 55 49 45 48 51 52 53 52 53 54 56 58 57 56 54 53 54 52 54 56 59 58 63 73 76 79 81 86 92 96 98 98 97 94 93 90
58 59 60 59 58 55 55 54 52 51 51 54 56 56 55 55 53 51 50 50 48 49 52 53 56 54 44 56 64 68 78 82 87 89 95 97 97 98 100 102 103 100 98
Wind_Direction_500mb
254 258 220 216 213 208 204 201 200 203 206 207 206 209 210 209 208 215 214 209 209 203 205 210 210 216 222 223 225 233 236 230 228 225 225 227 232 238 238 244 250 259 265
245 245 235 219 215 212 209 209 201 201 211 216 211 213 205 209 215 215 211 210 207 210 211 211 215 221 223 219 227 233 235 232 233 226 227 230 237 242 245 248 255 260 263
249 226 235 224 229 210 207 211 205 205 208 201 207 204 208 210 214 214 209 207 212 218 223 218 220 226 223 225 229 238 241 242 237 229 225 214 225 228 239 248 258 262 265
261 240 221 216 213 227 213 209 209 211 210 215 215 215 212 211 215 217 211 214 218 220 225 222 226 224 227 231 233 240 243 242 239 230 231 235 239 231 243 251 261 260 267
257 253 228 220 217 218 216 210 215 216 215 216 222 222 219 213 218 214 216 219 223 226 228 226 226 224 228 229 237 241 240 242 240 236 239 238 242 246 250 264 267 260 269
245 244 235 226 224 223 218 211 213 216 216 218 222 224 223 222 223 221 222 227 233 233 229 230 226 227 229 231 238 241 240 241 238 237 239 242 243 248 253 258 265 276 280
232 236 237 223 223 220 216 217 210 213 217 218 220 223 226 229 231 234 232 233 240 237 235 230 226 226 229 232 239 241 240 237 237 237 239 238 241 248 255 256 264 268 274
228 230 231 232 228 222 214 214 209 216 220 223 224 224 230 233 234 237 240 242 248 245 239 232 229 229 232 236 240 241 241 238 237 237 239 241 245 248 250 266 273 276 274
226 219 222 228 223 213 211 213 216 218 222 228 229 229 233 236 236 241 239 244 249 244 236 233 231 231 233 236 238 240 239 236 235 234 234 233 233 235 259 283 277 273 274
223 210 214 214 214 208 210 212 220 224 225 233 230 231 238 237 242 242 244 246 247 238 234 234 231 233 235 237 237 235 233 230 228 226 225 222 235 266 267 270 275 275 275
203 199 206 206 211 212 208 219 219 227 232 243 238 238 239 243 246 248 247 247 249 239 236 234 232 234 235 233 228 224 222 222 219 223 233 239 241 240 271 275 275 281 283
166 171 166 170 186 191 200 204 207 216 228 238 236 233 239 236 235 238 243 245 243 239 235 232 230 228 225 225 224 219 217 231 238 239 252 252 248 266 272 279 287 285 288
100 120 133 150 153 155 167 184 198 219 230 225 224 226 230 231 230 226 225 220 223 226 222 221 216 202 187 181 204 228 222 234 246 266 263 280 281 279 286 285 290 292 292
73 89 98 101 108 116 122 129 140 147 180 195 201 206 215 228 283 254 232 245 293 247 207 173 156 167 200 188 172 201 257 257 264 286 287 285 291 293 293 290 293 295 292
66 71 79 86 89 90 90 91 91 90 89 99 83 75 79 84 89 92 89 95 101 112 120 128 149 149 144 220 229 228 262 296 291 295 297 291 287 289 289 290 297 295 294
64 70 78 85 85 88 87 90 90 90 93 90 90 90 88 92 96 95 96 96 97 103 108 107 125 178 254 297 305 304 302 304 305 301 289 285 291 302 304 295 293 293 296
63 67 74 86 90 91 92 89 88 89 86 85 85 85 88 87 82 82 88 90 87 85 83 75 50 24 7 349 338 326 322 320 322 323 323 320 313 307 304 299 297 297 296
72 76 81 86 86 87 87 89 89 90 89 86 82 85 87 83 84 83 84 87 83 71 61 56 49 39 30 360 351 350 346 338 335 332 329 326 323 322 319 317 314 311 309
81 82 85 87 87 88 88 89 86 84 84 85 87 86 84 88 89 86 81 78 77 75 61 52 46 35 26 14 7 1 357 355 351 347 344 342 338 336 333 325 322 318 316
84 86 87 86 84 81 83 82 81 81 78 77 78 78 77 76 77 76 73 71 69 68 63 56 48 38 25 15 11 7 1 359 356 354 351 349 348 345 341 336 329 324 324
81 82 84 82 83 83 81 79 78 74 76 78 79 78 75 74 74 75 76 72 69 66 59 50 44 35 29 26 23 21 13 11 7 3 358 356 352 347 342 337 331 322 317
84 82 81 80 79 79 79 79 77 80 81 79 76 73 72 70 68 66 64 62 56 50 48 42 38 34 32 29 24 20 16 10 6 3 357 352 348 342 339 336 334 330 328
82 82 82 82 80 78 76 77 78 76 74 72 71 69 66 64 60 56 53 50 47 44 41 37 33 29 26 23 18 13 10 5 1 357 352 346 344 342 341 341 341 339 339
83 83 83 80 77 72 70 70 70 69 65 64 63 60 56 54 53 52 50 48 46 42 39 35 29 24 20 15 9 5 2 357 354 351 347 347 346 345 345 345 346 346 345
80 76 74 73 73 72 71 69 65 63 62 62 61 60 58 57 56 54 53 48 44 35 30 27 23 17 13 7 2 358 355 352 349 347 345 348 349 349 350 350 349 348 345
83 80 78 76 74 71 69 66 62 58 60 63 66 68 66 63 59 56 53 48 42 33 28 22 17 15 9 0 359 356 353 350 348 347 348 347 347 347 347 346 344 343 341
Wind_Speed_850mb
56 47 44 65 68 76 76 82 83 98 81 81 79 73 75 75 66 62 57 54 61 63 55 56 58 55 52 45 40 39 39 40 41 37 37 37 38 41 39 39 38 38 39
70 55 51 56 58 78 78 77 80 84 88 91 83 75 78 77 67 63 59 61 61 61 62 60 61 58 54 48 48 47 46 48 47 45 33 24 38 45 43 41 40 39 40
57 61 53 44 59 87 78 75 80 79 81 76 71 75 71 76 70 65 68 71 68 65 63 62 62 59 55 54 50 50 52 51 50 50 35 18 22 23 36 39 37 37 34
60 60 53 61 62 83 81 75 75 81 87 91 86 82 79 84 83 79 73 71 71 68 66 63 62 61 57 55 48 52 53 51 53 52 57 50 29 21 17 29 30 32 36
65 46 69 42 70 76 71 70 72 75 80 79 82 83 87 82 82 75 76 76 73 70 67 64 65 65 60 54 52 54 53 53 54 56 55 56 52 44 40 37 37 39 37
64 65 61 64 49 74 70 73 76 70 76 73 74 80 83 88 86 84 83 80 77 70 69 67 71 67 63 58 57 58 56 55 55 57 56 58 55 54 52 50 48 45 48
64 69 60 60 50 68 75 74 76 73 74 77 78 79 85 87 84 84 84 84 83 80 76 73 75 72 68 62 64 62 60 60 62 62 58 55 51 45 38 36 37 40 47
74 81 74 62 51 62 80 73 74 75 78 77 79 83 77 85 89 86 82 83 80 81 76 76 76 74 71 69 67 65 64 63 63 63 58 53 45 39 32 31 38 43 49
74 77 85 63 55 65 70 72 71 66 75 75 79 82 79 90 88 88 78 78 72 79 77 76 77 77 76 73 71 69 65 63 63 61 54 45 37 31 28 38 49 45 49
65 68 78 67 56 56 66 70 59 55 62 66 71 76 77 84 84 85 83 76 68 68 75 78 81 79 78 75 70 63 61 57 55 50 45 37 31 42 55 41 48 49 50
59 60 71 68 57 49 50 50 54 47 48 55 68 72 74 82 87 88 92 75 65 67 74 80 83 80 77 72 61 53 45 41 38 35 37 39 41 30 36 45 48 49 53
43 43 48 51 50 45 44 41 40 42 46 50 55 64 70 82 92 95 91 79 63 69 73 78 80 79 69 57 44 38 35 34 32 30 30 27 33 30 45 45 49 53 56
59 50 45 42 39 37 40 41 43 37 46 51 56 63 63 68 71 77 74 67 68 67 66 62 51 34 30 25 25 30 32 19 21 18 27 27 41 41 44 49 53 56 60
82 81 71 62 52 43 38 31 24 16 16 25 28 28 24 14 7 8 11 8 7 11 15 15 19 22 21 23 14 8 9 13 19 25 34 36 38 40 47 51 53 60 70
92 87 85 74 65 60 51 46 41 29 24 17 23 28 27 24 21 23 29 33 31 31 28 26 21 19 13 7 15 19 18 15 19 22 29 36 43 44 52 62 59 63 67
81 88 92 93 91 84 81 76 75 72 66 68 67 63 60 55 52 50 49 42 36 29 25 18 9 4 2 8 17 18 20 24 30 33 35 41 44 44 45 49 53 55 62
77 91 89 106 99 98 94 95 85 80 80 75 65 59 52 46 43 41 34 32 29 21 20 15 13 13 15 16 18 19 21 23 25 31 37 41 43 46 51 54 57 58 58
98 95 97 97 90 85 79 74 72 71 65 62 54 45 43 45 36 29 30 27 23 23 22 20 20 18 22 19 24 30 29 27 29 33 36 39 42 44 51 58 63 66 68
91 89 86 82 82 86 77 75 76 73 71 66 58 51 49 46 41 37 35 34 30 27 26 28 26 23 26 30 30 28 30 33 36 40 44 49 52 56 62 69 75 77 78
88 86 85 82 80 80 77 72 74 71 67 58 54 51 48 46 44 43 43 42 39 39 35 33 34 33 34 38 42 44 44 46 49 50 53 54 58 60 61 63 68 76 77
84 78 78 83 80 75 73 80 76 77 66 58 55 55 54 54 50 45 43 42 39 34 35 35 37 39 43 47 51 54 55 58 59 60 63 65 66 66 65 62 58 61 73
83 81 81 82 75 72 71 74 77 63 55 52 54 54 53 50 46 45 46 43 42 40 43 43 44 46 47 50 54 56 58 61 65 67 69 70 71 71 72 71 72 76 81
78 76 78 77 72 69 68 70 66 53 51 49 53 52 47 46 45 45 46 47 45 47 50 50 51 52 54 56 58 60 62 66 67 70 72 72 75 79 79 81 83 88 91
72 70 70 73 72 68 66 66 56 51 47 51 53 51 49 48 48 49 52 53 57 58 57 58 57 56 58 61 62 65 68 72 74 76 77 80 83 86 89 94 93 92 88
66 66 66 66 66 59 58 55 49 45 48 51 52 53 52 53 54 56 58 57 56 54 53 54 52 54 56 59 58 63 73 76 79 81 86 92 96 98 98 97 94 93 90
58 59 60 59 58 55 55 54 52 51 51 54 56 56 55 55 53 51 50 50 48 49 52 53 56 54 44 56 64 68 78 82 87 89 95 97 97 98 100 102 103 100 98
Wind_Direction_850mb
254 258 220 216 213 208 204 201 200 203 206 207 206 209 210 209 208 215 214 209 209 203 205 210 210 216 222 223 225 233 236 230 228 225 225 227 232 238 238 244 250 259 265
245 245 235 219 215 212 209 209 201 201 211 216 211 213 205 209 215 215 211 210 207 210 211 211 215 221 223 219 227 233 235 232 233 226 227 230 237 242 245 248 255 260 263
249 226 235 224 229 210 207 211 205 205 208 201 207 204 208 210 214 214 209 207 212 218 223 218 220 226 223 225 229 238 241 242 237 229 225 214 225 228 239 248 258 262 265
261 240 221 216 213 227 213 209 209 211 210 215 215 215 212 211 215 217 211 214 218 220 225 222 226 224 227 231 233 240 243 242 239 230 231 235 239 231 243 251 261 260 267
257 253 228 220 217 218 216 210 215 216 215 216 222 222 219 213 218 214 216 219 223 226 228 226 226 224 228 229 237 241 240 242 240 236 239 238 242 246 250 264 267 260 269
245 244 235 226 224 223 218 211 213 216 216 218 222 224 223 222 223 221 222 227 233 233 229 230 226 227 229 231 238 241 240 241 238 237 239 242 243 248 253 258 265 276 280
232 236 237 223 223 220 216 217 210 213 217 218 220 223 226 229 231 234 232 233 240 237 235 230 226 226 229 232 239 241 240 237 237 237 239 238 241 248 255 256 264 268 274
228 230 231 232 228 222 214 214 209 216 220 223 224 224 230 233 234 237 240 242 248 245 239 232 229 229 232 236 240 241 241 238 237 237 239 241 245 248 250 266 273 276 274
226 219 222 228 223 213 211 213 216 218 222 228 229 229 233 236 236 241 239 244 249 244 236 233 231 231 233 236 238 240 239 236 235 234 234 233 233 235 259 283 277 273 274
223 210 214 214 214 208 210 212 220 224 225 233 230 231 238 237 242 242 244 246 247 238 234 234 231 233 235 237 237 235 233 230 228 226 225 222 235 266 267 270 275 275 275
203 199 206 206 211 212 208 219 219 227 232 243 238 238 239 243 246 248 247 247 249 239 236 234 232 234 235 233 228 224 222 222 219 223 233 239 241 240 271 275 275 281 283
166 171 166 170 186 191 200 204 207 216 228 238 236 233 239 236 235 238 243 245 243 239 235 232 230 228 225 225 224 219 217 231 238 239 252 252 248 266 272 279 287 285 288
100 120 133 150 153 155 167 184 198 219 230 225 224 226 230 231 230 226 225 220 223 226 222 221 216 202 187 181 204 228 222 234 246 266 263 280 281 279 286 285 290 292 292
73 89 98 101 108 116 122 129 140 147 180 195 201 206 215 228 283 254 232 245 293 247 207 173 156 167 200 188 172 201 257 257 264 286 287 285 291 293 293 290 293 295 292
66 71 79 86 89 90 90 91 91 90 89 99 83 75 79 84 89 92 89 95 101 112 120 128 149 149 144 220 229 228 262 296 291 295 297 291 287 289 289 290 297 295 294
64 70 78 85 85 88 87 90 90 90 93 90 90 90 88 92 96 95 96 96 97 103 108 107 125 178 254 297 305 304 302 304 305 301 289 285 291 302 304 295 293 293 296
63 67 74 86 90 91 92 89 88 89 86 85 85 85 88 87 82 82 88 90 87 85 83 75 50 24 7 349 338 326 322 320 322 323 323 320 313 307 304 299 297 297 296
72 76 81 86 86 87 87 89 89 90 89 86 82 85 87 83 84 83 84 87 83 71 61 56 49 39 30 360 351 350 346 338 335 332 329 326 323 322 319 317 314 311 309
81 82 85 87 87 88 88 89 86 84 84 85 87 86 84 88 89 86 81 78 77 75 61 52 46 35 26 14 7 1 357 355 351 347 344 342 338 336 333 325 322 318 316
84 86 87 86 84 81 83 82 81 81 78 77 78 78 77 76 77 76 73 71 69 68 63 56 48 38 25 15 11 7 1 359 356 354 351 349 348 345 341 336 329 324 324
81 82 84 82 83 83 81 79 78 74 76 78 79 78 75 74 74 75 76 72 69 66 59 50 44 35 29 26 23 21 13 11 7 3 358 356 352 347 342 337 331 322 317
84 82 81 80 79 79 79 79 77 80 81 79 76 73 72 70 68 66 64 62 56 50 48 42 38 34 32 29 24 20 16 10 6 3 357 352 348 342 339 336 334 330 328
82 82 82 82 80 78 76 77 78 76 74 72 71 69 66 64 60 56 53 50 47 44 41 37 33 29 26 23 18 13 10 5 1 357 352 346 344 342 341 341 341 339 339
83 83 83 80 77 72 70 70 70 69 65 64 63 60 56 54 53 52 50 48 46 42 39 35 29 24 20 15 9 5 2 357 354 351 347 347 346 345 345 345 346 346 345
80 76 74 73 73 72 71 69 65 63 62 62 61 60 58 57 56 54 53 48 44 35 30 27 23 17 13 7 2 358 355 352 349 347 345 348 349 349 350 350 349 348 345
83 80 78 76 74 71 69 66 62 58 60 63 66 68 66 63 59 56 53 48 42 33 28 22 17 15 9 0 359 356 353 350 348 347 348 347 347 347 347 346 344 343 341